Theta_e
305 296 293 291 295 298 299 299 299 300 299 297 298 297 294 294 295 299 298 298 298 296 294 295 296 296 298 299 297 296 296 296 295 296 296 297 296 296 296 295 295 295 294 295 296 297 297 298 297 299 300 300 301 302 303 303 304 306 306 305 304 306 308 307 305 304 302 301 300 299 298 296 297 297 296 295 295 295 296 296 296 297 297 297 298 299
302 294 295 299 300 301 301 301 300 299 299 297 296 294 293 296 293 298 298 297 299 295 293 295 295 296 298 299 300 297 296 294 295 296 296 297 296 296 296 295 295 294 294 295 295 296 296 296 298 299 299 299 299 299 301 301 302 303 304 303 303 303 303 304 304 302 301 300 298 297 296 296 295 294 293 292 293 293 294 294 294 294 294 295 295 296
294 293 297 301 302 303 302 300 300 299 297 298 294 293 293 293 297 300 297 297 297 296 292 294 294 295 298 299 300 300 296 297 298 298 298 298 296 296 296 295 295 293 293 293 294 295 296 297 297 296 297 299 299 299 300 301 302 302 301 301 301 301 301 300 301 300 299 298 297 297 295 294 293 293 293 293 293 293 292 292 292 292 292 293 293 293
291 295 299 302 302 300 299 299 298 299 298 294 293 291 289 295 295 291 294 296 296 294 292 294 293 295 298 300 300 302 302 300 298 298 299 298 297 296 296 296 294 293 292 292 293 294 295 295 295 295 296 297 298 297 298 299 299 301 300 300 300 300 299 298 297 297 297 297 296 295 295 294 293 292 292 292 291 291 290 290 290 290 291 291 291 291
295 300 303 302 301 299 297 297 297 294 292 295 295 293 293 295 295 295 293 293 296 295 295 293 292 292 296 296 297 301 300 297 295 296 295 295 298 298 298 297 295 294 293 292 292 293 295 295 294 295 295 296 297 296 296 298 298 300 299 299 299 298 297 296 296 296 296 295 294 294 294 294 293 292 290 289 288 288 288 288 288 288 289 290 289 290
297 301 304 300 300 298 298 295 296 296 292 293 297 296 296 297 296 296 297 295 291 290 294 292 284 285 294 296 297 295 292 295 294 294 294 295 295 295 295 295 295 295 294 293 293 293 294 294 294 294 295 296 295 294 295 296 298 298 298 299 298 297 296 296 296 296 296 295 294 293 292 290 288 287 287 286 285 286 286 286 287 288 288 288 288 288
298 301 302 299 298 297 297 295 298 297 292 291 293 298 298 297 296 296 294 293 284 283 292 295 286 284 293 294 295 292 293 294 293 293 294 294 295 294 294 294 294 294 293 293 293 293 293 293 293 293 294 294 294 293 294 296 297 298 297 298 297 296 296 298 297 297 296 295 295 294 292 290 288 286 286 286 286 286 286 286 286 286 287 287 287 287
297 296 297 299 297 296 294 293 298 297 293 289 297 298 297 296 296 295 295 293 290 295 295 292 291 284 286 293 298 296 293 294 294 293 294 295 295 294 294 294 293 293 293 292 292 293 293 293 293 293 294 293 292 293 294 295 296 296 296 295 295 295 295 295 295 296 296 293 292 290 289 289 287 287 286 286 286 286 286 285 285 285 286 286 287 287
298 295 297 296 295 294 294 297 300 299 295 294 297 299 296 296 297 295 294 290 290 288 284 287 292 284 284 291 296 298 292 292 293 294 294 294 295 294 294 294 293 293 293 293 292 292 292 293 293 293 292 292 292 293 293 293 293 293 294 294 294 293 293 293 293 294 294 293 291 290 289 287 287 287 287 287 287 286 285 284 284 284 284 285 286 286
298 297 298 299 295 293 297 295 298 300 295 297 298 298 297 298 296 296 290 289 287 286 284 287 291 284 286 292 293 294 295 293 294 296 295 294 294 294 293 293 292 292 292 292 292 292 292 293 293 292 291 291 291 292 293 292 292 292 292 292 292 291 291 292 292 292 292 291 291 289 288 287 286 287 286 286 285 285 284 284 283 283 283 283 284 285
297 297 297 298 297 298 293 294 295 297 297 298 298 296 294 294 291 291 290 288 285 283 285 290 292 289 283 289 292 292 293 296 298 295 295 294 293 293 293 292 292 292 292 291 291 292 292 292 291 290 290 290 290 289 290 290 291 291 291 291 290 290 290 291 291 291 291 291 290 289 287 287 286 286 286 285 285 284 284 283 283 283 283 283 283 284
296 296 297 298 298 297 297 293 296 297 298 297 293 290 291 288 288 286 285 286 281 281 284 290 291 291 282 285 294 297 294 296 297 292 292 292 292 292 292 292 291 291 291 291 291 291 290 289 289 289 289 288 289 289 289 289 290 290 290 289 289 289 289 290 291 291 291 290 289 289 288 287 287 287 286 285 284 284 283 283 283 283 283 283 284 283
292 292 297 297 298 298 295 294 292 296 295 294 292 290 285 283 282 280 282 278 280 280 282 285 291 286 287 292 295 295 294 293 294 295 293 292 292 292 292 291 291 291 291 290 290 290 289 288 288 288 288 288 288 288 289 289 289 289 289 288 288 288 289 290 290 290 290 290 289 289 288 288 288 287 286 285 285 284 283 283 283 282 282 282 282 282
289 295 296 296 296 297 298 291 286 285 289 291 289 286 283 281 279 277 279 281 281 283 283 284 289 286 289 292 298 298 296 292 291 293 294 293 293 292 291 291 290 290 290 290 289 289 288 288 288 288 288 288 288 288 288 288 288 288 289 288 288 288 289 289 289 289 289 289 289 289 288 288 288 287 286 286 285 284 284 284 283 282 282 282 282 282
283 284 292 294 289 298 297 297 296 292 289 291 294 292 287 284 281 277 281 279 280 281 281 284 283 280 281 287 289 290 290 289 289 290 292 293 293 291 290 290 290 289 289 289 289 289 289 289 289 288 288 288 288 288 288 288 288 288 288 288 288 287 288 288 288 288 288 289 289 289 288 288 288 287 286 286 286 285 284 284 283 283 282 282 282 282
289 290 296 299 297 297 295 299 300 295 290 291 294 295 288 287 289 284 283 282 280 280 278 279 281 284 288 290 288 289 289 288 289 290 291 291 291 290 290 289 289 289 289 289 289 289 289 289 289 288 288 288 287 287 287 287 287 287 288 287 287 287 287 288 288 288 288 288 288 288 287 287 287 287 286 286 286 285 284 284 283 283 282 282 282 283
289 286 295 295 295 295 296 298 299 299 284 289 291 286 290 294 293 286 283 283 281 280 281 283 282 286 291 294 289 288 288 288 288 289 290 290 290 289 289 289 289 289 289 289 289 289 289 289 289 288 288 287 287 286 286 287 287 288 288 287 287 287 287 288 288 288 287 287 287 287 286 286 286 285 285 285 284 284 284 283 283 283 282 282 282 283
288 290 292 293 291 293 292 294 299 299 298 291 284 289 295 296 293 287 281 281 281 280 283 283 284 283 283 285 288 288 287 286 287 287 289 290 289 289 289 289 289 290 290 290 290 289 289 289 288 288 287 287 287 286 286 287 288 288 288 287 287 287 287 287 287 287 287 286 286 285 285 285 285 285 284 285 284 284 284 283 283 282 282 281 282 282
298 288 290 294 293 293 295 297 295 296 298 292 290 297 290 282 282 285 283 279 278 279 281 281 283 286 287 288 285 286 287 287 288 288 288 289 289 289 289 290 290 290 290 290 289 289 289 289 289 288 287 287 286 287 287 288 288 288 287 287 287 286 286 286 286 285 286 285 286 286 284 284 284 284 284 283 284 283 282 281 281 281 281 281 281 281
296 288 286 290 291 292 293 292 285 288 294 295 295 292 295 287 284 283 285 283 282 279 277 282 284 284 290 291 289 290 290 290 289 288 288 289 289 290 290 290 290 290 290 290 290 290 289 289 289 288 287 286 286 286 287 287 287 287 287 286 286 285 284 284 284 284 284 284 285 284 283 282 283 283 282 282 282 281 281 281 281 280 280 280 280 280
290 293 284 285 291 292 284 289 287 290 288 286 286 284 289 285 289 286 286 283 281 279 280 281 281 285 290 296 293 293 293 293 290 289 290 290 290 290 291 291 291 291 290 290 290 290 290 289 289 288 287 286 285 286 286 287 286 286 286 285 284 284 283 283 283 283 283 283 283 283 282 282 282 282 282 282 281 281 281 281 281 280 280 280 280 279
290 288 287 284 283 283 287 293 294 294 294 291 289 287 290 286 283 281 282 287 285 283 281 280 281 287 294 292 296 295 296 295 293 291 291 291 290 291 291 291 291 290 290 291 291 291 290 289 288 287 286 285 285 285 285 286 285 284 284 284 283 283 283 283 282 283 283 282 283 282 282 281 281 282 282 281 281 281 280 280 280 280 280 279 279 279
296 290 289 284 285 287 291 293 294 292 293 293 292 289 293 291 288 285 282 282 285 286 286 284 281 286 290 291 290 291 292 296 294 293 292 292 291 291 291 292 291 291 291 291 291 291 290 289 288 287 286 285 284 284 284 284 284 284 283 283 283 283 282 282 283 283 282 282 282 281 281 281 281 281 280 280 280 280 280 280 280 280 279 279 279 278
295 288 287 288 292 291 291 293 294 293 294 290 290 291 292 289 291 289 287 285 283 284 283 283 280 284 289 290 287 286 286 288 294 294 293 292 291 291 291 291 291 290 291 291 290 290 290 289 287 286 285 284 284 284 284 284 283 283 283 283 283 282 282 282 282 282 282 281 281 280 280 280 280 280 279 279 279 279 279 279 280 280 279 278 278 278
290 287 289 285 284 285 286 287 287 290 290 286 287 291 293 293 291 290 287 285 283 286 285 282 280 285 289 287 285 285 288 289 290 291 292 292 291 291 291 291 291 291 291 290 290 290 288 287 286 286 285 284 284 284 283 283 283 283 283 283 283 282 282 282 282 282 281 280 280 279 279 279 279 279 278 278 278 278 278 278 279 279 278 278 277 277
293 289 288 284 282 280 279 280 281 282 285 288 289 288 291 291 290 287 285 287 283 287 286 285 285 289 288 287 289 289 289 288 286 288 289 291 291 291 291 291 291 291 291 291 290 288 288 288 287 285 285 285 284 284 283 283 283 283 283 283 282 282 282 282 281 281 281 280 279 279 278 278 278 278 278 278 278 279 279 280 279 279 278 278 278 276
287 289 291 289 288 287 288 288 289 289 285 284 286 287 289 290 291 290 289 286 284 286 285 288 289 290 289 287 287 287 286 287 287 287 289 289 289 290 291 291 292 292 291 290 290 289 288 286 286 286 285 285 284 283 283 283 283 283 283 282 282 282 282 281 281 281 280 279 279 279 278 278 278 278 278 278 279 280 280 279 279 278 278 278 277 276
286 288 290 291 291 293 294 294 294 292 287 288 287 286 288 289 289 288 287 286 290 285 284 290 291 288 291 289 288 286 286 287 287 288 288 288 290 291 291 291 292 290 290 289 288 288 288 288 287 286 285 285 284 284 283 283 283 283 283 283 282 282 282 282 281 280 280 279 279 279 279 278 278 278 279 279 279 280 280 279 279 278 278 277 276 275
288 288 291 291 290 294 295 295 296 293 291 290 289 289 287 288 288 287 287 290 289 286 285 290 290 289 292 293 292 291 291 291 291 290 290 291 291 291 290 290 290 290 290 289 289 289 288 287 287 286 285 285 284 283 283 283 283 283 282 282 282 282 281 281 280 280 280 279 279 279 278 278 278 279 279 280 280 280 280 279 279 278 278 277 277 277
290 289 290 291 289 291 292 293 294 293 293 292 290 290 290 288 288 288 288 290 289 289 291 291 290 290 294 293 293 293 293 293 293 292 291 290 290 290 290 289 289 290 289 290 290 290 290 289 287 287 286 285 285 284 283 283 283 283 283 282 282 282 281 281 280 280 279 279 279 279 279 279 280 280 280 280 280 280 280 279 278 277 277 277 277 277
290 289 291 288 287 288 291 292 291 291 291 289 291 291 291 290 289 289 289 289 289 289 290 291 289 289 295 295 292 294 294 291 290 289 289 289 289 289 289 289 289 289 290 290 290 290 290 288 287 287 287 287 286 285 284 284 283 283 283 283 282 282 281 281 280 280 279 279 279 279 279 279 279 280 280 280 281 280 279 278 278 277 277 277 276 276
289 286 287 287 285 286 289 289 289 289 289 288 289 289 290 289 287 287 287 290 288 287 288 288 287 288 294 297 293 292 292 291 291 290 290 290 289 288 288 288 288 288 289 290 290 289 288 287 288 288 288 288 286 285 284 284 284 283 283 283 282 282 281 281 280 280 279 279 279 279 279 280 280 281 281 281 281 280 279 278 278 277 277 276 276 275
287 287 286 286 283 285 289 288 287 288 287 285 286 289 291 291 291 292 292 291 291 291 288 286 287 293 293 291 289 288 290 290 290 290 289 289 288 288 288 288 289 288 289 289 288 288 288 288 289 289 289 288 286 285 285 285 283 283 283 283 282 282 281 280 280 280 279 279 279 279 280 280 281 281 281 281 281 280 279 278 278 277 276 275 275 273
287 288 287 288 283 285 288 287 286 284 278 281 292 295 295 291 291 289 290 291 292 292 291 293 290 289 289 289 290 288 288 290 292 292 291 290 288 288 288 288 289 289 289 288 288 288 289 288 288 288 288 288 287 286 285 284 284 284 283 283 282 281 281 280 280 280 280 280 280 280 280 280 280 281 281 281 280 279 278 277 276 276 274 273 272 272
287 287 287 289 284 285 286 285 282 277 281 290 287 288 292 295 294 291 292 293 293 292 292 291 290 288 290 291 292 291 291 291 290 290 290 290 290 290 289 289 289 289 289 288 288 288 288 287 286 286 286 287 286 285 285 284 284 283 282 282 282 282 281 281 280 280 280 280 280 280 280 280 280 280 280 280 279 278 277 276 274 274 273 272 272 272
287 287 287 285 286 283 281 283 277 279 287 286 287 284 286 289 289 289 289 292 293 293 292 291 293 290 289 289 288 288 289 288 288 288 289 289 290 290 289 290 289 289 288 288 288 287 287 286 287 286 286 286 286 286 285 284 283 283 282 282 282 282 281 281 280 280 280 280 279 280 280 280 280 279 279 278 277 276 276 275 274 273 273 272 271 269
292 289 288 285 288 281 283 283 283 288 287 289 286 281 286 286 286 288 285 288 292 293 292 292 292 289 287 285 283 284 285 287 288 288 287 288 290 289 291 291 290 289 289 288 287 287 286 286 286 286 285 284 285 285 285 284 284 283 282 282 282 281 281 281 280 280 280 280 280 280 280 280 280 279 279 278 277 276 276 275 273 273 272 271 271 271
293 288 288 285 284 287 283 282 282 281 279 285 286 283 288 286 290 291 289 288 289 290 292 291 291 287 287 283 282 283 286 287 287 288 287 286 288 288 288 289 288 288 288 287 286 287 286 285 285 284 285 284 284 285 284 284 284 283 282 282 281 281 280 280 281 280 280 280 280 280 280 280 280 279 279 278 277 277 277 275 274 273 272 272 271 271
287 289 288 287 285 284 282 280 281 279 282 284 282 282 284 284 288 289 287 285 287 284 288 291 288 286 286 284 283 287 287 286 287 288 287 287 287 287 287 287 288 287 287 288 288 287 286 285 285 284 284 284 283 283 284 284 284 283 282 281 281 281 281 281 281 280 280 281 281 281 280 280 280 280 279 279 278 277 276 275 274 274 272 271 271 270
285 286 286 283 283 285 283 281 280 285 285 284 282 282 283 280 287 289 279 280 287 285 287 289 288 286 285 286 286 288 288 287 288 288 289 288 288 287 287 287 286 286 286 286 286 286 285 283 283 282 283 283 283 282 283 284 284 283 282 281 281 281 281 281 281 281 281 281 280 280 280 280 280 280 279 279 278 277 276 275 273 272 271 270 270 269
282 282 285 281 283 284 284 283 285 285 286 283 281 281 282 282 288 283 279 285 282 281 285 288 287 287 286 285 287 287 288 287 288 285 285 286 286 285 285 285 286 286 285 285 284 285 283 283 284 284 283 283 282 282 282 283 283 282 282 281 281 281 282 282 281 280 280 280 279 279 280 280 280 280 279 279 278 277 275 274 274 271 270 269 268 267
283 284 282 285 282 282 284 282 283 285 286 283 281 282 283 288 281 281 285 281 281 282 284 287 287 287 287 286 287 288 285 282 283 283 284 285 285 285 285 284 283 283 283 283 284 283 283 282 282 282 281 281 281 282 282 282 282 281 280 280 280 282 282 279 280 280 279 279 280 279 279 279 279 279 279 277 276 274 273 272 272 271 269 268 267 267
283 282 279 281 283 283 282 281 280 277 284 281 284 284 284 283 284 283 281 281 282 282 284 285 287 286 287 286 286 283 281 281 282 283 283 284 284 284 283 283 282 282 282 282 282 282 283 282 282 282 281 281 280 281 281 281 280 279 278 279 281 280 279 280 279 279 279 279 279 278 278 278 277 277 277 275 275 274 273 270 269 268 268 267 266 266
287 282 282 283 287 280 281 278 280 285 283 284 286 284 284 287 286 284 285 283 282 283 283 284 285 286 286 287 285 281 281 281 281 281 282 282 282 282 282 282 281 281 281 281 282 282 282 282 282 281 280 280 279 279 280 280 279 278 278 280 281 277 276 276 277 278 278 278 277 277 276 275 274 274 274 274 273 272 271 269 268 267 267 266 266 265
287 284 285 282 287 284 282 283 283 282 284 283 283 283 285 285 285 286 286 285 283 283 283 283 283 284 285 285 283 281 280 280 280 281 281 281 282 281 281 281 281 281 281 281 281 282 282 282 281 280 279 278 277 277 278 277 279 278 278 280 278 278 278 277 276 277 277 276 275 274 271 269 271 270 269 270 272 271 270 267 266 266 264 265 265 265
283 285 284 285 283 282 283 283 283 283 283 283 284 284 285 285 284 285 284 283 283 283 283 282 282 283 283 283 282 280 279 279 280 279 279 280 281 280 281 280 280 280 279 279 280 280 279 279 279 278 277 276 275 276 276 276 277 278 280 278 275 275 275 275 275 275 276 274 273 271 268 269 266 265 266 267 269 271 270 269 267 267 265 265 265 265
282 282 284 282 284 283 279 281 280 282 282 282 284 284 283 283 284 284 284 284 283 282 283 283 281 282 281 281 282 280 278 278 279 279 279 279 280 280 280 280 280 280 280 280 280 280 278 277 278 278 276 276 274 276 275 275 276 279 277 275 276 275 273 271 274 274 272 272 271 268 268 269 268 265 264 264 265 266 267 267 267 266 265 265 265 265
281 284 282 283 281 281 278 278 279 279 281 282 282 283 283 283 284 283 281 280 280 281 281 281 281 281 281 281 280 280 280 279 280 279 279 279 279 280 280 280 279 279 278 278 278 279 277 278 278 276 276 278 277 276 275 275 276 276 275 272 271 270 271 271 272 272 272 270 268 268 267 268 267 266 265 264 265 266 266 266 266 266 267 266 266 265
283 285 278 283 280 278 278 279 278 281 282 282 281 282 283 283 282 282 281 280 280 280 280 279 280 280 281 280 280 281 280 280 280 280 280 279 279 279 279 279 279 279 278 278 277 278 279 277 277 277 277 278 276 275 274 274 273 272 273 270 266 268 270 270 270 269 269 267 266 266 265 265 264 265 265 263 263 264 265 266 266 267 267 265 265 267
282 279 282 281 277 277 278 278 279 279 278 282 282 283 283 283 282 281 280 280 279 279 279 279 278 278 279 281 280 281 281 280 280 280 280 279 279 278 278 278 278 278 277 276 276 275 275 274 275 275 276 275 275 274 273 272 271 270 271 268 266 268 269 268 267 266 266 265 265 263 263 263 263 262 263 262 262 261 262 267 271 268 265 264 270 273
281 282 281 279 280 278 282 282 283 283 283 284 285 284 284 283 282 281 280 280 279 279 279 279 277 278 279 279 280 281 280 280 280 280 279 278 279 279 279 278 278 277 277 276 275 273 274 274 274 274 274 274 274 273 272 270 269 268 268 269 268 268 269 268 269 267 267 267 266 267 265 264 264 264 263 263 262 262 262 262 264 272 273 272 271 272
Wind_Speed
4 3 4 6 7 6 7 8 8 7 7 3 1 3 5 4 4 5 2 2 3 1 5 6 7 7 8 7 5 11 9 8 6 8 8 9 10 10 9 8 8 7 8 6 6 5 5 4 3 3 4 3 2 3 2 3 3 4 4 4 5 3 4 4 5 5 5 6 7 7 8 8 6 7 7 8 7 8 7 8 8 8 8 8 9 8
1 5 6 8 7 6 7 8 9 8 7 5 2 4 5 3 6 3 1 3 1 2 2 3 5 8 8 6 6 7 9 11 10 10 11 10 10 10 11 10 9 7 6 7 6 6 5 5 4 3 3 5 4 3 3 3 3 4 4 4 4 5 6 5 6 6 6 5 4 6 6 7 6 6 7 7 7 7 7 8 8 8 8 8 9 8
3 8 8 9 6 6 8 4 2 4 4 3 2 2 3 4 3 6 3 2 1 1 6 6 9 10 9 8 7 6 12 11 13 14 13 12 11 9 9 9 9 9 8 7 7 6 6 6 5 4 3 4 5 3 3 3 3 3 4 4 5 5 5 5 5 6 6 6 5 6 6 7 7 6 6 7 6 6 8 9 9 8 8 8 9 9
5 5 11 9 6 7 4 1 2 1 1 3 3 4 6 3 2 3 3 1 1 1 2 4 9 10 11 10 13 12 12 10 9 9 5 6 12 11 12 12 11 10 10 10 10 9 8 6 5 5 4 5 5 3 3 3 3 3 4 4 5 6 5 6 6 8 8 9 8 7 8 7 8 7 7 8 7 8 9 10 8 8 8 8 9 9
9 2 5 9 9 4 4 3 2 2 4 4 6 5 4 3 4 6 2 3 3 4 3 6 9 11 10 12 11 13 8 3 3 4 2 3 3 7 6 7 10 12 12 11 10 9 9 9 7 6 5 5 5 4 3 2 3 3 4 5 6 6 6 6 7 8 8 10 9 9 9 8 8 6 6 7 7 7 7 8 9 8 8 9 9 9
10 6 1 4 5 4 4 4 4 4 5 4 5 10 8 7 7 5 4 0 1 3 5 4 5 4 5 11 15 4 2 5 4 7 6 6 3 6 8 8 7 8 9 11 11 10 10 9 8 6 6 6 5 5 3 1 3 4 5 6 6 6 6 7 7 7 8 8 9 7 7 7 6 7 6 7 7 7 8 8 4 8 8 8 9 8
3 2 4 5 4 4 4 4 4 7 5 2 2 3 6 8 5 4 5 3 4 3 2 1 4 10 3 10 4 0 4 8 3 7 9 8 7 6 7 8 8 10 9 8 8 9 10 9 9 7 6 6 7 5 3 2 3 4 5 5 5 6 6 6 5 6 7 7 6 5 6 6 7 9 6 5 6 7 6 6 8 7 7 7 9 8
5 2 3 1 4 5 4 5 3 6 3 4 1 3 3 2 1 3 3 3 5 2 0 2 2 7 13 12 9 5 7 8 8 10 10 10 10 11 9 8 8 9 9 11 11 10 8 10 10 10 8 7 7 6 4 3 3 4 5 6 6 5 5 4 4 4 4 6 7 9 9 8 7 7 9 7 7 6 6 8 7 7 7 7 7 8
2 5 5 4 4 5 7 5 3 7 5 1 1 4 3 2 2 3 1 3 3 3 5 4 2 4 7 5 5 10 8 9 12 14 13 12 11 11 11 10 9 9 9 10 11 11 11 11 10 9 8 7 7 6 5 4 4 4 5 6 6 6 5 4 4 5 7 7 8 9 9 9 6 8 8 7 6 7 6 9 6 7 7 7 8 8
3 1 3 6 6 6 3 2 2 5 7 1 3 4 3 1 1 0 2 2 3 2 10 4 6 6 16 7 5 5 11 12 12 14 13 14 13 11 11 9 10 9 8 7 9 9 9 8 8 8 8 8 6 5 4 4 4 4 5 6 7 6 5 5 5 7 7 8 9 9 9 11 10 8 8 7 8 7 6 8 7 6 6 6 7 7
3 3 2 0 3 1 4 2 3 4 4 5 3 3 2 1 1 0 1 0 2 8 11 7 10 8 11 2 8 7 7 10 10 3 3 6 7 8 8 10 10 10 9 8 8 8 8 6 9 9 9 7 6 4 5 4 4 4 5 6 7 6 5 5 6 6 7 7 8 9 9 11 12 10 10 9 8 7 6 8 6 6 6 6 7 6
2 2 0 1 4 4 4 3 4 2 2 4 2 2 1 2 2 0 2 2 3 9 3 13 11 13 11 2 1 4 1 2 5 7 7 10 10 10 9 9 10 10 9 9 9 10 9 9 8 8 9 8 7 6 5 5 4 5 5 7 8 6 6 6 6 7 7 8 8 7 9 9 10 11 9 10 10 8 8 7 8 6 7 7 6 6
7 5 2 2 5 5 2 4 1 0 1 2 4 2 5 2 2 2 2 4 6 9 1 1 10 5 18 13 8 1 0 1 3 5 11 11 10 9 8 10 9 9 9 10 10 10 10 10 11 10 9 9 8 8 7 6 6 5 6 7 8 7 6 7 6 7 8 8 8 8 8 8 8 8 9 9 9 7 8 8 8 7 7 6 7 6
5 5 9 4 2 6 9 9 3 1 5 6 7 7 5 3 4 5 4 3 4 3 1 1 2 9 2 6 11 20 7 3 3 3 6 10 11 10 9 9 9 8 9 9 9 9 10 10 10 9 10 9 8 8 8 7 6 5 6 7 8 7 6 6 7 7 8 8 7 7 7 7 8 8 8 8 9 7 7 7 7 7 7 7 6 6
4 2 7 8 5 9 14 15 13 5 8 10 5 9 9 7 2 3 5 6 5 2 1 3 4 6 4 6 2 2 5 4 4 3 4 7 7 7 7 6 7 8 7 8 9 10 11 11 10 10 9 9 8 8 8 7 6 6 6 7 8 8 6 7 7 7 8 8 7 6 6 7 7 8 8 7 7 8 8 7 8 7 7 7 6 6
12 7 2 15 1 11 14 9 4 6 4 5 5 3 3 9 2 7 1 0 2 2 2 1 6 2 5 2 3 2 4 5 2 3 5 8 8 9 8 9 9 9 9 9 9 9 9 10 10 9 9 8 8 8 7 7 6 7 7 7 7 8 8 8 8 7 8 8 7 6 8 8 8 7 7 7 6 6 7 8 8 8 7 7 7 6
2 4 4 4 3 11 9 4 7 8 4 5 5 7 8 1 5 4 2 1 1 1 11 5 6 6 6 10 6 4 4 3 3 2 3 7 8 9 9 9 9 9 9 9 10 10 11 9 8 8 9 8 8 8 8 8 7 7 8 9 9 8 7 8 8 8 7 8 8 7 7 8 8 9 9 9 8 8 7 7 7 8 7 7 6 6
7 2 2 3 3 1 0 2 4 1 3 6 4 4 4 4 3 3 3 1 1 5 8 8 12 5 3 11 6 8 6 4 4 6 6 7 8 11 9 10 10 10 9 8 7 8 9 10 10 9 7 8 8 8 8 8 7 6 7 8 10 10 10 8 8 8 8 8 7 7 8 7 8 8 8 8 9 8 8 7 7 7 7 7 6 6
2 4 3 1 3 2 3 1 2 2 1 3 4 1 7 1 1 2 2 6 3 9 6 4 8 11 11 11 3 6 8 9 10 8 8 10 10 10 9 8 8 7 8 10 10 10 11 11 11 10 10 8 7 7 7 7 7 6 6 7 7 9 8 8 7 6 7 6 6 6 7 8 8 7 7 7 7 7 8 8 7 7 7 6 5 6
1 6 1 2 2 1 1 3 7 5 0 1 2 1 0 2 2 7 7 1 2 6 1 12 6 14 9 10 12 12 14 13 12 11 14 14 13 11 10 10 12 12 11 11 11 11 11 11 11 11 11 11 10 10 8 8 6 7 7 7 7 6 6 6 7 7 8 7 7 7 7 6 7 7 7 7 8 8 7 7 7 7 7 6 5 5
2 1 5 1 5 5 2 5 8 12 11 2 1 2 0 1 1 2 2 5 5 3 5 9 11 8 3 9 12 14 16 15 16 18 14 13 12 12 13 14 13 12 12 12 12 12 12 12 11 10 9 8 7 7 7 8 8 7 6 7 7 9 8 8 7 7 7 7 7 8 9 8 8 8 7 7 6 7 7 7 7 6 6 6 5 5
1 3 8 3 1 5 4 6 11 8 11 11 13 11 13 9 3 4 10 3 5 4 6 2 16 6 1 2 8 13 13 11 14 16 14 13 14 14 12 11 12 12 12 12 12 12 12 11 10 9 8 7 8 9 9 8 7 7 7 7 8 8 7 8 8 7 7 6 8 8 8 8 7 7 7 7 7 7 7 7 7 6 6 6 5 5
6 2 3 6 6 9 7 2 2 3 2 1 7 5 9 8 6 6 12 3 1 9 4 5 6 15 2 2 2 4 4 9 12 10 12 12 13 12 11 12 12 12 13 14 13 13 12 11 11 11 12 11 11 9 9 8 8 8 7 7 7 8 8 7 8 7 7 8 8 8 7 8 7 7 7 8 7 7 7 6 6 6 7 6 5 4
9 2 4 5 2 3 3 3 0 1 1 2 4 4 8 15 13 10 7 2 4 3 5 4 9 6 3 5 4 3 2 1 7 13 13 9 9 12 12 11 11 10 9 9 8 8 9 9 9 10 11 11 11 11 11 9 7 7 7 7 8 9 8 8 7 8 8 8 8 8 8 8 8 8 7 8 7 8 6 7 6 6 5 5 4 6
4 3 4 3 2 1 0 2 2 1 1 5 5 9 9 5 6 6 1 2 5 13 7 5 16 9 1 3 4 5 3 3 3 5 10 11 8 11 12 11 11 10 9 11 12 12 10 10 12 13 12 11 10 9 8 9 9 9 8 7 8 8 8 8 7 8 8 8 9 9 9 8 8 8 8 7 7 8 7 7 7 6 6 7 6 5
7 7 10 8 12 12 10 9 10 8 12 5 3 4 7 12 9 5 8 10 11 14 8 9 17 6 2 1 1 1 1 2 2 2 3 7 11 10 8 10 10 11 12 13 12 10 14 15 11 9 10 10 10 10 9 9 9 8 8 8 7 9 9 8 7 8 9 9 10 9 9 9 8 8 9 8 8 8 8 8 7 6 6 7 8 6
4 2 9 12 14 15 15 5 2 9 5 8 10 12 13 12 12 10 7 7 18 8 6 20 20 12 9 1 4 5 4 5 5 3 9 9 8 9 10 10 11 12 13 15 15 13 9 8 13 13 11 11 10 10 10 10 10 9 9 8 8 8 9 9 9 9 9 9 9 9 9 9 9 9 8 8 9 8 8 7 7 7 7 7 7 8
2 3 14 18 19 20 19 14 4 13 11 13 12 13 16 15 16 16 15 21 9 1 17 18 5 14 21 6 8 7 5 4 4 6 5 3 5 9 9 8 9 8 8 7 8 11 16 16 12 12 13 12 11 10 9 9 9 10 10 11 9 9 9 8 9 9 9 9 9 9 10 9 8 8 8 7 8 8 8 8 8 7 7 7 7 7
7 9 12 14 19 21 20 18 12 7 8 8 14 15 17 18 16 21 25 22 9 13 22 16 10 18 21 11 11 12 12 12 13 16 12 9 8 7 9 11 12 12 10 11 12 13 13 13 14 14 13 12 10 12 12 11 10 9 8 8 9 9 10 9 10 10 10 9 10 10 9 8 7 7 8 7 8 8 8 8 8 8 7 7 7 6
3 8 8 9 14 14 19 17 9 10 10 9 8 12 16 19 25 27 23 18 19 20 23 22 12 18 18 6 9 12 12 13 7 4 7 12 14 13 13 12 12 11 12 13 13 14 14 14 11 12 12 11 14 13 12 12 12 12 12 12 11 10 9 10 10 11 10 10 10 8 9 9 8 9 9 8 9 9 9 9 8 8 8 7 7 7
6 9 9 3 5 14 18 13 8 11 10 13 15 12 15 20 22 21 16 17 18 19 25 24 18 21 18 3 4 8 10 5 6 10 13 10 8 11 12 11 11 11 10 10 10 11 10 10 10 10 12 14 15 15 14 12 11 10 11 10 11 11 10 10 11 10 10 11 9 9 9 9 9 9 10 9 9 7 8 9 8 7 7 7 8 8
4 4 4 2 4 12 17 14 14 10 11 13 18 21 24 24 17 8 14 17 13 21 22 15 16 23 15 9 7 6 8 11 11 9 9 9 12 11 11 10 9 9 9 10 11 9 9 10 12 14 15 16 14 14 12 12 12 12 13 12 12 11 9 10 10 11 10 10 9 9 10 10 10 10 10 9 9 9 8 8 8 7 7 7 7 7
7 4 5 4 9 14 20 5 8 10 8 13 19 31 33 21 11 13 14 16 20 19 14 16 22 21 8 4 5 5 9 9 7 8 8 7 8 10 11 11 11 9 11 11 11 11 11 12 14 15 13 10 12 13 14 13 11 13 12 12 11 9 10 11 10 10 10 10 10 10 10 10 11 10 9 9 9 9 8 9 8 8 8 8 6 6
4 8 8 5 8 9 15 6 4 4 13 17 20 14 15 18 20 20 21 22 19 16 17 18 10 2 5 8 12 10 10 13 15 11 8 13 11 9 7 8 10 11 10 9 9 10 10 8 8 8 10 10 10 10 9 10 12 10 9 10 9 11 10 11 10 10 11 10 11 10 11 11 10 10 10 9 9 9 9 9 10 8 6 6 6 6
12 10 11 6 4 8 2 10 6 15 19 10 5 2 2 12 16 20 23 20 16 15 15 17 14 9 8 11 13 13 12 7 4 9 8 7 12 12 13 11 10 11 10 10 10 9 9 9 8 7 7 8 9 9 10 10 9 8 9 10 11 11 11 11 11 11 11 11 10 10 10 11 10 10 9 9 9 9 9 10 8 7 7 8 8 8
10 13 6 4 4 2 3 7 8 14 4 3 4 1 3 2 3 6 13 19 21 18 18 21 23 10 6 6 1 2 7 4 2 1 2 4 5 10 9 9 10 9 11 11 12 10 10 10 11 10 9 6 7 8 9 10 8 10 10 9 11 10 10 11 11 12 10 9 9 11 11 10 10 10 9 9 9 10 10 9 10 10 7 7 5 4
13 8 9 9 8 10 7 12 18 6 14 11 7 3 6 7 7 11 12 17 17 16 16 17 16 7 6 3 3 4 5 4 1 3 1 4 5 4 8 8 9 9 8 6 8 9 7 7 7 7 6 6 8 9 9 8 9 9 9 10 10 10 10 10 11 11 10 10 10 10 10 10 10 10 10 10 11 11 11 10 9 7 6 7 7 7
11 14 9 12 7 13 13 12 6 5 14 20 3 2 5 1 4 7 9 15 6 9 14 14 14 9 9 5 5 6 5 4 6 8 4 3 2 4 3 4 4 5 7 7 5 6 6 5 5 5 8 7 7 7 7 8 9 9 9 9 9 10 9 10 12 10 10 10 10 10 10 11 11 11 11 10 12 12 11 9 7 8 8 10 9 9
2 5 7 15 8 7 10 11 10 11 11 1 2 3 1 0 3 5 4 14 2 1 6 13 10 12 14 12 7 7 7 8 10 7 5 5 4 4 6 4 5 6 6 8 10 9 7 7 7 7 6 7 7 6 8 8 9 9 9 8 9 9 10 11 10 10 11 12 12 11 10 9 10 11 11 12 12 11 11 11 11 9 8 8 7 7
6 5 5 7 10 9 10 11 12 6 7 2 2 1 2 2 4 8 5 7 1 2 1 7 11 11 8 8 10 8 11 11 7 6 5 9 9 5 7 9 8 8 6 6 5 7 8 8 8 6 8 8 8 7 8 8 9 9 9 8 8 9 11 11 12 13 11 8 8 8 9 9 10 11 11 13 11 9 10 7 7 8 9 7 7 7
6 3 9 15 14 15 13 11 5 5 2 2 4 3 2 2 4 9 12 2 2 3 3 6 8 10 11 10 9 8 5 2 3 2 5 8 8 5 4 4 5 7 9 8 8 8 8 6 8 10 9 8 8 7 7 8 8 8 7 8 8 10 12 11 8 7 7 7 7 7 9 8 10 12 11 10 10 9 7 8 9 8 8 8 7 6
4 4 1 4 11 12 12 13 11 4 2 4 2 3 2 5 7 10 1 2 1 1 3 5 8 8 10 13 11 5 5 4 5 5 6 7 8 6 7 8 8 6 5 5 7 8 7 6 5 5 5 5 8 7 7 8 8 7 7 8 10 13 9 5 6 6 6 7 8 8 8 9 8 9 10 7 8 8 8 6 7 8 8 7 7 8
11 10 9 12 6 2 1 9 4 9 1 5 7 3 2 4 2 3 3 1 1 2 4 3 6 5 7 7 3 7 7 4 5 6 5 6 8 9 9 9 10 10 9 7 5 4 8 7 7 7 7 6 7 6 6 8 8 7 7 9 13 8 5 6 5 6 7 7 7 8 8 8 8 8 7 8 9 9 9 7 7 7 8 8 8 8
2 4 3 7 6 7 9 10 6 2 4 1 2 7 3 2 3 6 4 1 2 1 1 2 1 5 6 6 7 5 6 7 4 5 5 5 5 5 5 5 5 6 5 4 6 7 6 7 6 7 5 6 6 6 7 9 8 7 8 12 8 4 5 5 5 6 6 7 6 6 7 7 7 7 6 8 8 7 8 8 7 7 8 8 8 8
2 4 1 3 1 4 2 1 1 2 2 2 3 2 1 1 1 1 3 3 3 2 1 2 3 2 3 4 5 6 4 4 6 6 8 7 7 8 8 8 8 8 8 8 8 6 6 9 8 7 6 5 6 6 7 6 9 7 8 8 4 5 6 6 6 7 7 7 6 6 5 5 6 6 6 6 8 9 8 7 8 8 6 8 8 8
2 3 0 1 1 3 3 1 1 3 2 3 3 2 1 1 1 3 3 3 2 2 4 3 2 4 4 5 7 2 4 5 7 5 5 6 7 5 5 6 5 5 5 5 5 5 5 5 6 6 6 4 5 5 5 5 6 8 8 2 4 4 5 5 7 7 8 7 6 6 6 6 5 5 5 6 6 8 8 10 10 10 8 8 8 8
2 1 2 3 1 2 2 3 3 2 3 1 0 3 3 0 0 0 1 2 2 3 4 1 3 5 5 5 6 6 5 6 6 5 6 6 7 8 8 8 7 8 9 8 7 7 5 6 6 6 6 6 5 5 5 6 6 8 2 2 3 4 5 5 6 6 5 6 6 5 6 7 7 6 4 5 4 5 6 7 7 7 8 9 9 9
3 4 3 2 2 3 1 3 1 1 1 1 2 3 4 3 3 1 1 1 3 3 3 3 5 5 5 4 5 7 6 6 8 6 6 6 6 6 6 7 7 5 3 4 6 6 5 6 6 6 6 6 6 5 5 6 8 5 1 1 3 4 5 5 5 5 5 4 4 5 5 6 7 7 6 6 6 7 6 6 7 9 11 13 13 12
3 5 3 3 4 2 3 1 1 4 1 3 3 4 4 5 4 3 0 1 2 3 4 5 4 3 4 4 4 7 7 5 6 7 7 5 5 5 6 6 6 6 6 6 5 7 9 8 7 7 7 7 4 5 5 6 3 2 3 2 3 4 4 4 3 2 1 2 3 4 3 4 4 5 5 5 4 4 4 6 7 9 7 4 3 7
5 2 2 5 3 3 6 6 8 7 4 7 9 10 8 7 5 4 1 1 2 3 3 3 3 3 2 1 4 6 7 6 5 6 6 6 6 5 5 5 5 5 5 4 5 4 3 5 6 6 6 4 3 4 4 3 3 3 4 4 4 4 4 3 3 3 3 3 4 3 3 3 3 3 3 4 4 4 5 5 7 7 5 5 5 12
6 5 5 5 5 4 4 10 9 2 3 9 13 12 10 7 5 5 4 5 4 4 5 6 4 1 1 1 0 6 6 7 7 5 5 4 6 5 6 6 6 5 5 5 5 4 5 4 2 3 2 0 0 1 2 3 2 3 3 4 4 5 5 5 6 5 6 6 6 6 6 5 6 5 5 5 5 5 6 5 5 9 12 10 8 9
Wind_Direction
131 175 189 202 210 214 208 218 231 245 263 315 323 286 278 288 276 288 197 164 177 310 231 235 252 260 264 267 190 195 185 216 209 202 203 175 173 173 175 172 162 160 142 133 131 127 121 120 106 107 120 112 107 94 107 90 82 106 109 83 72 73 112 111 105 87 92 96 88 78 77 80 70 68 64 59 48 49 46 42 42 41 39 38 37 33
24 207 229 223 222 221 233 216 218 242 267 274 312 312 292 278 277 260 265 169 115 131 261 256 275 262 262 253 254 174 187 205 207 207 207 187 179 178 172 165 162 131 112 130 135 142 134 122 132 132 128 137 106 94 91 83 70 79 87 93 87 61 48 54 67 76 67 60 77 96 84 85 67 64 62 62 47 49 48 45 44 42 39 42 43 38
213 220 228 233 234 251 253 285 266 224 250 273 248 255 273 253 276 276 109 158 103 154 268 265 261 265 262 261 259 230 190 210 205 204 202 187 183 178 175 162 147 135 149 150 152 153 141 142 147 137 122 108 117 113 111 126 118 102 93 85 83 65 59 48 68 82 86 81 77 92 94 98 92 70 79 80 71 60 57 51 46 43 43 44 45 43
244 236 237 236 239 237 250 123 320 330 307 276 253 249 241 252 269 301 68 23 170 207 282 321 307 281 273 262 256 250 238 216 208 210 216 199 182 178 180 168 158 155 154 164 160 158 145 149 142 141 139 126 121 132 127 129 129 117 106 102 90 85 84 84 86 94 91 92 94 88 98 91 94 101 84 77 66 58 56 51 46 45 46 48 52 47
218 251 201 204 222 225 198 194 186 222 251 211 220 240 257 248 236 215 235 205 188 232 258 291 284 274 256 257 245 245 238 143 145 102 122 14 137 153 141 146 158 163 160 157 158 156 153 155 153 154 146 138 134 119 111 128 129 122 114 102 102 100 102 101 102 105 109 103 97 102 102 103 100 81 74 76 64 60 62 63 47 41 43 48 51 47
250 244 55 200 180 160 214 244 195 175 240 250 220 208 225 242 258 261 278 249 351 300 209 179 320 262 222 229 239 206 85 204 176 173 195 174 133 135 154 158 152 148 156 157 161 158 156 152 143 138 145 142 128 124 129 108 122 120 114 110 109 111 107 113 119 124 122 122 122 122 123 115 96 86 70 69 81 69 60 64 61 53 47 52 55 50
239 113 164 159 178 179 197 219 192 163 224 264 275 338 225 220 263 310 302 352 290 255 339 114 191 282 314 294 290 1 215 211 162 202 203 180 176 167 166 161 161 150 147 144 147 152 156 148 142 150 156 148 133 137 145 129 107 113 114 116 113 114 114 126 135 131 131 131 132 122 109 105 114 112 92 92 83 88 86 82 68 63 52 51 58 53
114 162 65 96 155 172 199 209 210 169 181 244 317 331 38 1 232 243 265 229 254 326 206 186 172 267 292 264 243 225 198 214 211 221 211 201 190 185 174 168 163 156 154 153 157 159 155 153 156 157 155 142 137 140 144 146 136 127 125 118 115 109 105 94 104 133 115 103 104 101 100 105 111 107 114 108 101 94 96 86 78 71 62 55 56 60
135 176 144 183 186 183 206 217 185 197 196 177 261 72 55 52 34 11 353 285 256 6 267 163 219 296 233 275 185 210 219 212 219 219 215 207 197 183 175 169 165 160 161 158 158 162 160 159 158 150 144 131 131 143 147 147 136 128 122 118 115 113 108 104 101 101 105 109 110 111 116 110 105 111 111 112 105 102 100 94 86 80 74 67 60 60
351 162 192 185 174 218 191 28 347 175 213 173 142 71 88 126 68 307 299 280 305 243 250 190 175 232 274 239 242 216 224 221 225 221 213 204 190 176 172 164 160 156 156 158 157 155 154 155 146 136 124 127 134 134 127 134 141 138 130 122 119 118 118 119 108 106 109 113 115 118 128 127 125 124 116 113 114 110 107 98 93 89 82 76 69 61
157 155 190 206 215 178 104 56 39 46 86 154 129 106 77 123 181 314 180 95 2 244 245 194 199 183 286 258 194 181 222 209 227 260 189 165 151 159 165 157 160 160 160 160 158 152 146 136 129 131 137 132 129 136 142 149 153 146 134 131 122 129 126 121 119 117 118 116 120 130 138 136 135 133 130 126 116 113 106 105 100 98 96 84 77 67
132 75 344 252 72 101 110 60 16 352 133 133 112 132 63 308 32 82 299 152 208 266 189 193 199 190 228 296 270 214 30 182 218 176 157 157 163 164 164 157 157 158 159 156 154 152 144 130 131 138 138 142 147 149 149 161 156 150 144 133 127 129 131 126 121 115 116 118 126 135 140 138 136 137 136 132 130 131 125 120 115 109 97 87 79 70
242 198 147 74 280 152 144 102 358 51 18 151 111 116 119 239 77 281 136 220 203 244 274 268 182 235 235 242 289 351 154 325 9 152 166 162 165 165 157 156 156 154 156 159 159 155 152 155 158 156 149 149 161 164 162 165 161 153 145 141 136 138 134 130 126 122 123 126 135 139 136 135 134 132 130 129 126 134 131 133 125 120 111 107 92 80
278 188 191 182 33 221 161 184 151 257 215 170 164 156 134 201 226 254 209 217 264 264 275 324 174 236 336 287 218 244 243 85 47 34 145 156 164 164 154 155 153 159 162 162 160 160 162 163 164 159 155 158 162 164 165 166 161 159 148 146 139 141 136 129 127 130 129 133 135 136 138 135 132 127 127 129 131 136 130 131 127 125 122 115 115 110
246 323 226 142 241 172 200 206 194 161 155 195 177 165 186 166 171 239 179 216 228 225 334 280 100 234 115 240 333 347 78 75 40 12 86 122 130 130 136 138 144 158 166 165 166 169 169 166 165 160 159 160 164 163 164 165 163 152 151 147 145 143 142 136 138 135 134 135 132 129 128 124 127 129 127 128 129 131 129 124 119 118 118 117 118 115
211 236 181 178 71 156 198 215 173 119 135 200 184 200 212 225 153 231 161 320 306 357 294 213 206 211 187 121 154 149 77 73 47 45 106 117 124 133 147 159 167 173 171 170 167 167 168 164 161 156 160 161 162 163 161 165 162 157 156 151 153 151 149 146 143 142 139 134 130 129 128 130 125 121 116 113 112 115 121 125 126 126 123 122 120 118
118 239 110 88 142 167 202 175 204 142 173 203 140 208 208 32 199 290 334 57 109 16 252 144 281 275 309 266 159 144 124 134 118 178 138 142 147 148 166 173 175 178 175 171 172 170 162 158 162 159 159 161 161 163 169 169 167 162 157 157 157 154 150 149 148 144 139 133 132 134 131 130 127 129 132 132 131 127 122 122 122 122 125 122 123 126
150 195 320 103 185 5 93 325 225 244 107 103 190 231 93 67 76 128 227 333 164 240 266 151 232 250 138 276 143 157 168 184 188 184 192 165 165 174 179 182 180 178 177 170 165 166 162 159 160 157 159 163 164 162 163 166 164 162 162 161 159 159 155 156 148 143 140 138 135 133 132 129 131 132 131 132 132 132 126 120 118 119 120 130 135 125
141 266 198 297 53 3 348 48 60 336 5 141 176 318 131 246 265 241 71 266 234 247 286 226 218 237 196 229 139 189 187 202 202 189 183 186 183 187 178 179 177 163 162 172 169 168 167 167 167 166 161 157 157 157 160 159 158 156 161 161 161 159 156 150 144 136 131 134 137 138 137 134 129 128 127 129 126 126 127 129 129 125 127 121 121 120
115 201 298 326 8 156 94 159 190 202 48 76 353 321 12 97 164 154 195 225 120 267 291 265 161 258 175 229 172 196 200 202 188 185 200 195 185 183 180 177 177 176 178 177 175 173 171 169 168 166 163 162 162 160 162 160 157 161 162 155 152 144 139 136 136 137 137 139 134 128 120 118 123 127 130 131 129 127 130 131 125 125 122 131 124 124
249 135 257 254 291 119 208 187 204 173 183 209 61 258 232 120 316 109 314 199 181 227 230 277 280 252 210 185 175 187 199 197 181 194 197 189 186 186 182 180 181 179 178 181 178 173 171 170 165 159 156 151 147 154 157 162 165 163 156 158 155 150 148 143 145 139 142 134 133 132 133 134 131 128 125 122 121 123 124 122 122 127 134 121 126 131
181 152 212 121 261 218 238 191 209 195 201 188 179 197 185 155 163 200 256 146 228 192 240 221 260 261 257 357 187 184 199 190 188 188 190 184 182 188 182 178 174 177 184 183 178 172 169 167 160 152 145 147 152 163 164 163 161 165 166 161 151 147 153 149 149 146 144 137 138 138 135 133 130 128 126 125 124 124 126 129 132 134 126 128 141 138
165 138 155 195 203 206 215 107 153 107 75 213 184 214 185 201 175 177 236 230 167 237 257 256 314 278 146 56 86 150 181 182 184 179 185 184 182 179 176 174 181 182 179 181 178 174 172 170 165 162 161 164 167 167 164 167 171 169 165 158 158 153 160 154 151 147 144 141 141 140 136 133 134 134 133 130 133 133 137 135 131 134 134 141 151 147
70 142 187 262 99 53 47 154 75 27 116 339 273 213 177 209 196 209 211 165 209 223 217 246 247 271 343 23 355 354 340 280 174 173 179 176 171 174 171 172 173 172 179 180 178 165 164 161 153 155 166 168 172 175 176 170 167 165 169 165 158 161 159 154 152 147 143 143 142 142 138 139 140 138 141 139 143 143 144 140 139 142 142 149 144 132
123 261 134 93 330 292 9 9 338 12 82 220 208 208 217 222 199 218 329 66 276 231 199 185 251 247 268 34 357 352 13 44 112 161 163 165 177 171 172 172 173 172 166 173 176 170 159 159 169 178 176 175 175 173 170 172 175 171 172 168 164 161 159 154 153 149 151 150 148 149 146 148 149 148 149 146 146 150 148 148 152 156 155 145 137 135
168 165 152 194 216 220 226 216 204 199 208 225 234 199 200 210 197 136 223 217 235 247 161 234 253 230 296 326 354 353 17 62 29 45 129 164 165 167 168 163 165 168 177 177 170 159 175 182 174 170 178 177 179 177 174 175 175 174 173 174 165 161 162 163 154 155 153 156 153 155 154 154 155 158 157 156 156 158 157 154 157 151 146 144 145 147
146 147 182 192 210 230 236 250 115 129 109 184 217 189 213 207 211 205 221 216 227 232 181 230 238 268 262 250 267 238 199 198 182 184 168 167 180 166 159 162 169 177 177 177 177 177 162 162 183 184 178 180 177 177 178 176 177 177 174 173 173 168 163 162 158 159 159 162 160 158 161 161 165 164 163 163 162 159 156 155 152 148 149 150 150 149
82 179 203 206 214 229 237 227 169 149 179 204 198 210 210 203 204 203 207 228 212 32 256 243 216 251 253 200 225 227 227 232 212 204 185 194 172 159 152 151 158 165 170 161 158 167 181 188 179 176 182 178 180 175 177 180 181 180 178 176 173 170 165 165 162 164 166 165 164 166 168 168 167 167 167 163 159 159 155 151 151 150 149 146 153 152
161 204 215 209 225 232 239 244 225 198 195 193 204 206 206 209 205 210 223 227 186 214 239 247 174 236 253 223 210 205 196 203 196 202 195 161 144 142 152 162 171 175 168 172 181 183 183 181 186 183 180 181 172 178 180 179 181 177 179 177 177 172 174 167 163 169 170 169 170 174 168 166 169 168 168 165 160 158 157 154 151 150 150 154 154 151
146 236 220 192 227 243 247 247 246 243 247 238 217 213 214 207 211 214 222 218 216 228 240 252 234 238 249 228 196 204 201 199 198 126 137 166 175 168 162 171 177 175 176 181 185 188 190 190 181 181 176 176 183 182 182 182 183 183 180 181 179 176 174 164 172 172 174 176 177 169 168 171 171 172 172 167 165 164 159 154 152 153 157 160 155 148
165 230 192 130 211 247 253 253 253 246 254 261 256 247 230 222 220 217 217 226 224 240 244 246 254 260 250 229 216 200 188 129 116 157 172 180 162 162 166 171 176 179 184 188 187 191 189 182 180 176 182 188 188 188 186 185 182 179 183 182 179 180 176 169 173 176 177 180 175 172 169 169 177 174 176 171 162 158 157 158 156 159 161 158 157 155
156 281 44 99 205 256 252 241 244 247 247 254 260 253 246 237 229 194 214 221 204 226 237 244 252 253 248 210 229 175 149 163 178 174 163 166 175 170 166 171 171 177 185 192 194 184 178 182 184 187 192 193 190 184 181 181 181 180 189 182 181 179 168 173 177 178 181 179 176 175 174 176 176 178 176 168 170 163 161 158 160 166 166 162 160 159
177 160 180 174 219 242 255 200 221 231 240 249 248 243 238 239 230 228 227 221 215 218 229 229 234 244 249 163 139 180 168 181 176 175 179 170 165 168 168 170 176 183 192 191 187 186 187 189 191 193 193 185 183 185 189 178 175 188 185 181 179 162 173 179 180 179 181 183 181 180 179 177 179 180 175 176 169 163 159 164 169 169 169 176 167 151
170 195 215 176 232 234 261 238 131 185 223 226 236 250 239 233 221 221 231 225 221 201 223 229 249 278 154 170 182 188 182 191 193 202 182 160 159 174 179 173 182 188 190 188 185 187 191 185 186 187 186 187 185 182 171 173 182 183 174 171 162 173 179 177 184 184 187 186 186 181 181 181 179 180 178 171 167 165 169 172 182 179 174 157 155 165
190 198 224 190 213 239 158 102 200 218 230 239 22 274 211 228 225 222 236 240 234 226 235 248 247 221 197 185 192 189 196 197 178 173 190 186 162 162 171 184 187 185 179 175 178 184 182 179 171 165 166 175 173 169 167 179 176 162 167 171 174 179 179 183 184 190 192 191 186 181 183 181 179 180 175 171 169 170 178 183 177 174 175 171 176 177
191 197 196 223 202 6 110 186 234 234 246 329 266 80 254 102 173 191 246 244 235 224 217 229 236 217 196 199 188 164 174 171 108 41 181 187 179 159 161 187 192 174 174 180 177 177 171 173 173 173 182 171 162 169 172 178 166 165 176 169 176 176 181 181 189 197 194 190 185 186 184 177 178 179 175 172 174 178 186 185 183 180 175 171 178 176
194 196 190 232 178 228 198 216 237 332 316 282 265 195 145 174 172 176 228 245 230 220 214 224 234 196 181 156 147 106 105 80 169 273 293 186 190 181 184 193 172 174 167 168 166 171 166 156 162 175 158 158 166 166 175 166 163 165 161 170 178 173 178 182 193 197 191 188 189 188 182 179 179 181 180 177 179 188 190 185 186 179 167 172 181 180
191 199 189 216 217 204 223 238 242 252 246 253 253 217 178 196 193 186 200 263 239 203 204 209 222 172 165 156 137 133 107 92 238 248 228 246 152 138 112 126 129 133 139 134 120 123 131 134 130 142 150 158 162 165 156 156 157 156 162 170 171 172 181 185 198 191 185 191 191 189 186 187 183 183 184 181 189 193 194 188 183 183 176 180 183 192
271 240 201 207 211 184 219 230 225 226 242 159 208 204 212 322 140 130 148 253 258 219 201 196 190 169 169 157 153 132 125 190 225 234 230 181 162 143 117 105 125 127 128 135 139 136 135 140 141 140 132 139 149 159 151 151 149 152 163 168 172 175 183 195 194 185 192 198 194 191 188 186 185 186 186 190 196 191 187 187 188 182 176 186 183 191
198 197 165 217 223 217 215 225 232 220 254 224 219 257 243 321 155 106 195 272 312 345 229 179 170 158 146 148 146 155 165 206 213 240 204 178 164 160 149 145 128 119 110 108 104 127 131 127 117 126 143 156 165 152 145 146 150 160 164 174 166 177 195 199 195 199 199 191 185 185 187 186 188 190 189 197 195 188 192 178 161 171 179 185 180 176
182 215 198 210 214 219 219 242 271 275 278 171 175 227 253 271 124 161 215 199 2 6 347 105 134 151 150 155 161 168 230 187 183 152 105 119 115 115 94 100 116 127 132 129 131 126 129 142 150 160 166 164 154 149 148 146 149 166 170 166 174 197 206 203 194 188 186 179 181 185 188 187 188 192 197 193 190 182 174 174 178 169 173 178 173 168
229 205 323 225 228 223 220 231 235 278 238 145 269 200 238 109 198 205 170 235 163 58 4 109 134 154 155 161 182 175 148 125 99 94 115 133 142 135 129 121 109 88 74 103 128 133 133 133 126 123 127 143 148 147 149 150 159 171 163 173 196 213 205 172 181 177 173 180 188 190 188 191 194 191 190 181 163 168 182 182 169 174 173 168 172 180
183 175 189 204 207 279 148 241 225 241 219 109 128 33 302 148 258 130 152 14 155 168 111 100 142 169 161 176 147 120 136 118 122 127 125 125 132 141 143 142 140 141 140 133 128 143 139 137 143 151 150 146 147 149 152 150 160 167 173 185 215 206 166 182 171 174 180 184 188 192 192 191 185 186 178 177 177 174 180 168 165 168 164 168 177 183
209 164 192 224 179 206 197 213 216 308 136 255 135 174 158 187 160 165 120 53 29 30 114 99 180 177 184 156 152 126 130 123 100 116 109 108 114 112 119 121 118 123 129 142 148 152 147 137 141 140 143 142 148 152 156 157 162 172 179 213 216 157 170 168 176 169 179 189 193 188 191 190 188 181 175 175 169 170 165 171 171 166 174 174 176 182
210 169 131 185 155 179 217 124 322 293 32 13 79 325 180 32 89 262 88 142 140 251 194 153 220 155 154 122 127 131 119 141 144 149 138 151 146 152 154 163 159 158 156 154 160 156 150 151 150 141 137 144 151 160 166 170 162 175 197 226 165 181 176 178 166 172 183 189 189 187 180 165 174 177 173 171 166 170 175 170 164 173 184 173 183 186
20 168 260 102 293 134 68 83 41 22 31 10 19 323 34 74 344 41 121 118 239 196 179 176 180 150 142 141 126 139 132 142 129 128 118 136 146 149 137 128 129 131 133 126 133 152 148 126 127 136 142 153 164 162 167 179 167 175 219 175 166 179 168 166 168 179 193 188 182 177 158 165 170 166 170 171 184 185 181 177 179 183 178 182 195 195
224 150 93 139 226 119 274 75 41 93 105 355 337 333 348 345 284 303 226 150 165 155 193 58 130 145 159 142 156 148 144 138 136 143 142 135 145 152 153 149 150 155 154 161 163 142 133 131 137 155 161 178 200 179 179 183 202 214 187 144 163 147 153 167 185 193 186 186 180 168 166 176 181 176 172 177 176 179 176 175 179 181 182 189 193 199
300 173 81 173 85 137 155 136 238 38 22 282 247 185 206 238 266 292 344 57 79 82 100 87 94 107 131 136 151 140 153 156 145 157 146 152 152 153 150 150 149 146 151 133 143 145 135 151 164 172 176 197 205 190 186 192 212 214 166 69 111 133 140 164 184 200 211 202 182 181 182 187 178 174 182 193 184 186 190 188 185 190 197 192 195 193
158 111 204 160 125 97 46 81 62 78 352 293 296 279 249 223 223 252 280 50 67 86 71 48 55 140 144 172 139 137 143 177 164 157 151 149 142 147 162 157 164 159 149 144 160 162 169 174 179 190 184 210 195 176 184 206 207 145 164 138 106 120 138 167 173 181 192 168 164 188 174 183 177 188 184 193 208 231 219 197 199 211 228 246 211 215
91 168 176 90 113 193 190 182 170 133 223 228 236 225 225 227 216 219 151 159 134 124 124 99 44 24 66 133 148 146 159 172 164 150 156 165 171 166 152 155 151 148 152 158 137 156 153 171 182 184 198 205 179 171 173 174 172 161 154 140 130 124 140 157 155 182 201 169 173 172 158 182 188 179 180 182 201 224 273 270 223 218 221 251 247 229
164 187 141 169 168 217 174 168 193 158 170 199 200 212 211 213 193 197 196 211 189 164 153 139 120 81 95 7 70 148 163 165 175 150 147 159 185 180 170 158 159 162 171 156 140 159 184 194 167 179 196 175 87 83 98 96 114 119 130 135 149 151 166 166 185 198 201 182 197 187 183 180 190 190 189 188 184 197 216 255 288 249 236 231 231 241